This is the latest recevied weather packets stored in our database for station/object WV5G-13. If no packets are shown the sender has not sent any weather packets the latest 10 day(s).
| Time | Temp. | Humidity | Pressure | Rain* | Wind** | Luminosity | Snow |
|---|---|---|---|---|---|---|---|
| 1777984631 | 11.11° C | 54% | 1005.6 hPa | 0 mm | - | 38 W/m² | - |
| 1777984328 | 11.67° C | 54% | 1005.3 hPa | 0 mm | - | 35 W/m² | - |
| 1777984024 | 11.67° C | 54% | 1005.1 hPa | 0 mm | - | 26 W/m² | - |
| 1777983721 | 11.67° C | 55% | 1005.1 hPa | 0 mm | - | 18 W/m² | - |
| 1777983413 | 12.22° C | 54% | 1005.3 hPa | 0 mm | - | 15 W/m² | - |
| 1777983109 | 12.22° C | 54% | 1005.1 hPa | 0 mm | - | 8 W/m² | - |
| 1777982806 | 12.22° C | 55% | 1005 hPa | 0 mm | - | 5 W/m² | - |
| 1777982501 | 12.22° C | 56% | 1004.8 hPa | 0 mm | - | 4 W/m² | - |
| 1777982196 | 12.22° C | 56% | 1004.8 hPa | 0 mm | - | 2 W/m² | - |
| 1777981894 | 12.22° C | 57% | 1004.8 hPa | 0 mm | - | 1 W/m² | - |
| 1777981590 | 12.22° C | 57% | 1004.6 hPa | 0 mm | - | 1 W/m² | - |
| 1777981287 | 12.22° C | 57% | 1004.4 hPa | 0 mm | - | 0 W/m² | - |
| 1777980983 | 12.22° C | 57% | 1004.3 hPa | 0 mm | - | 0 W/m² | - |
| 1777980680 | 12.22° C | 57% | 1004.3 hPa | 0 mm | - | 0 W/m² | - |
| 1777980376 | 12.78° C | 57% | 1004.6 hPa | 0 mm | - | 0 W/m² | - |
| 1777980074 | 12.78° C | 57% | 1004.3 hPa | 0 mm | - | 0 W/m² | - |
| 1777979768 | 12.78° C | 58% | 1004.6 hPa | 0 mm | - | 0 W/m² | - |
| 1777979464 | 12.78° C | 57% | 1004.2 hPa | 0 mm | - | 0 W/m² | - |
| 1777979161 | 12.78° C | 58% | 1004.1 hPa | 0 mm | - | 0 W/m² | - |
| 1777978858 | 13.33° C | 58% | 1004.4 hPa | 0 mm | - | 0 W/m² | - |
| 1777978554 | 13.33° C | 58% | 1004.3 hPa | 0 mm | - | 0 W/m² | - |
| 1777978250 | 13.33° C | 58% | 1004.1 hPa | 0 mm | - | 0 W/m² | - |
| 1777977947 | 13.89° C | 57% | 1004.2 hPa | 0 mm | - | 0 W/m² | - |
| 1777977645 | 13.89° C | 57% | 1004.1 hPa | 0 mm | - | 0 W/m² | - |
| 1777977341 | 14.44° C | 56% | 1003.9 hPa | 0 mm | - | 0 W/m² | - |
* Rain latest hour (hover to see other rain measurements)
** Current wind speed in m/s (hover to see current wind gust speed)